Regional Weather Roundup
Issued by NWS

Home | Current Version | Previous Version | Graphics & Text | Print | Product List | Glossary On
Versions: 1 2 3 4 5 6 7 8 9 10 11 12 13 14 15 16 17 18 19 20 21 22 23 24 25 26 27 28 29 30 31 32 33 34 35 36 37 38 39 40 41 42 43 44 45 46 47 48 49 50
273
ASUS43 KFSD 242010
RWRSD

WEATHER ROUNDUP FOR SOUTH DAKOTA
NATIONAL WEATHER SERVICE SIOUX FALLS SD
300 PM CDT SAT JUN 24 2017

NOTE: "FAIR" INDICATES FEW OR NO CLOUDS BELOW 12,000 FEET WITH NO
SIGNIFICANT WEATHER AND/OR OBSTRUCTIONS TO VISIBILITY.


SDZ001>005-009-010-012>017-242100-
NORTHWEST AND NORTH CENTRAL SOUTH DAKOTA

CITY           SKY/WX    TMP DP  RH WIND       PRES   REMARKS
BUFFALO          N/A     69  30  23 NW30G38   30.20F
FAITH            N/A     71  32  23 NW22G32   30.23F
MOBRIDGE       MOSUNNY   68  37  32 NW23G37   30.17S
$$

SDZ012>016-024>037-041>051-057-063-072>074-242100-
SOUTHWEST AND SOUTH CENTRAL SOUTH DAKOTA

CITY           SKY/WX    TMP DP  RH WIND       PRES   REMARKS
RAPID CTY ARPT SUNNY     75  30  19 NW18G32   30.26F
PIERRE         MOSUNNY   72  36  26 NW29G36   30.17F
CUSTER         PTSUNNY   62  27  26 N7        30.34F
ELLSWORTH AFB  MOSUNNY   72  29  20 NW15G26   30.26F
PHILIP         MOSUNNY   75  33  21 NW23G30   30.21F
PINE RIDGE     CLOUDY    72  37  28 W10       30.29F
SPEARFISH      FAIR      68  34  28 N14G23    30.31S
WINNER         FAIR      76  33  21 NW24G35   30.19F
$$

SDZ004>011-016>023-039-040-242100-
NORTHEAST SOUTH DAKOTA

CITY           SKY/WX    TMP DP  RH WIND       PRES   REMARKS
ABERDEEN       MOSUNNY   64  41  42 NW26G35   30.16R
WATERTOWN      PTSUNNY   61  41  47 NW18G26   30.13R
BROOKINGS      PTSUNNY   64  41  42 NW24G30   30.13R
SISSETON         N/A     65  40  39 NW24G32   30.09R
$$

SDZ017-020-022-023-036>040-048>070-242100-
SOUTHEAST SOUTH DAKOTA

CITY           SKY/WX    TMP DP  RH WIND       PRES   REMARKS
SIOUX FALLS    PTSUNNY   70  42  36 NW22G35   30.11S
HURON          PTSUNNY   67  41  38 NW23G37   30.14S
CHAMBERLAIN    MOSUNNY   74  39  28 NW24G32   30.18F
MITCHELL       MOSUNNY   74  35  24 NW23G36   30.15R
YANKTON        SUNNY     75  38  26 NW29G38   30.14S
$$

ABBREVIATIONS USED IN REMARKS
   TC - TEMPERATURE IN CELSIUS
  WCI - WIND CHILL INDEX
   HX - HEAT INDEX
  VSB - VISIBILITY





USA.gov is the U.S. government's official web portal to all federal, state and local government web resources and services.